Location: Bazugues
(43.4465°N, 0.3432°E)
Time: 15:01:33
(UTC+00:00)

USA 267 - Pass Details

Date: 12 January 2026
Orbit: 1101 x 1107 km, 123.0° (Epoch: 10 January)

Event Time Altitude Azimuth Distance (km) Brightness Sun altitude
Exits shadow 20:33:34 39° 268° (W) 1,605 4.4 -40.9°
Drops below altitude 10° 20:38:04 10° 302° (WNW) 2,964 6.1 -41.7°
Sets 20:40:41 0° 308° (NW) 3,924 6.8 -42.2°
